Wind_Speed
39 37 32 31 34 29 28 28 27 27 30 31 29 24 24 28 22 22 25 30 31 29 33 31 29 28 29 29 29 30 30 29 28 29 28 28 29 30 31 31 32 31 32 33
43 40 35 36 35 34 32 32 30 31 34 37 34 31 26 28 27 25 29 31 32 33 33 35 35 32 31 33 33 32 32 31 31 31 31 31 31 31 32 33 34 34 35 35
46 42 39 40 38 37 36 35 35 36 36 38 40 41 32 28 31 30 31 33 34 35 37 37 38 36 35 34 35 36 36 35 35 33 33 34 33 33 34 36 37 36 36 37
48 44 40 38 40 40 39 38 39 38 39 40 43 53 40 34 33 34 34 37 38 37 35 37 38 38 37 38 39 38 38 37 38 38 37 36 37 36 38 39 39 39 39 40
48 45 43 42 41 41 41 40 40 41 41 42 49 50 50 41 37 35 37 39 42 41 39 34 37 39 38 37 38 38 37 37 39 40 39 39 40 41 41 41 41 41 42 43
51 50 46 44 42 41 42 43 42 42 42 50 52 48 50 45 43 39 42 40 37 40 38 34 34 36 38 38 38 38 37 38 39 40 41 42 42 42 42 43 43 44 45 45
52 51 48 46 46 44 42 41 42 45 47 53 55 57 49 44 49 45 42 32 36 39 39 36 35 37 37 39 40 40 39 39 40 41 40 42 44 44 44 44 45 45 46 47
53 54 50 48 47 47 46 44 45 49 51 53 59 59 53 48 46 50 41 29 30 34 37 39 38 38 40 41 42 42 43 43 44 44 44 44 45 45 45 46 46 47 49 50
54 53 53 49 47 46 47 49 47 49 53 57 61 57 57 51 49 49 49 34 31 27 31 34 38 40 41 43 43 43 44 44 42 44 45 44 45 46 47 48 49 50 51 52
52 55 55 53 53 53 53 53 53 55 56 59 62 63 58 55 55 53 45 38 31 30 31 34 37 39 40 42 44 45 46 44 45 43 44 46 47 49 49 50 51 52 53 53
54 58 62 62 62 61 60 58 59 59 60 62 67 61 57 60 58 54 42 33 27 33 37 37 38 41 42 43 44 43 41 43 47 47 47 47 48 50 52 53 53 54 55 54
57 57 60 62 61 61 64 66 69 69 66 63 64 59 51 51 52 44 37 35 33 31 36 40 38 42 43 45 46 45 43 43 44 46 48 50 51 52 53 54 55 55 56 56
45 48 51 56 64 72 68 62 60 58 56 59 59 53 47 46 44 41 43 46 48 45 42 41 46 48 46 47 47 47 46 47 49 50 52 53 53 54 55 55 57 58 59 60
55 58 54 52 49 51 50 52 53 54 55 60 58 49 44 46 45 47 52 55 56 53 43 45 49 52 51 47 48 49 50 49 49 51 52 53 53 55 58 59 59 60 61 63
64 64 59 55 53 51 52 51 49 55 54 61 55 59 43 48 50 53 55 57 57 54 52 49 54 55 52 47 47 51 52 53 53 52 53 55 58 59 60 62 63 64 64 64
60 61 61 63 59 58 59 58 58 57 56 62 55 59 47 44 48 53 53 56 58 61 61 55 52 54 57 56 54 51 53 55 56 54 54 55 58 60 62 64 65 66 68 69
66 62 59 62 59 60 65 57 58 61 57 57 61 61 50 50 46 45 51 53 51 55 56 58 57 57 57 56 57 55 51 50 51 52 53 54 55 57 60 63 64 66 68 70
73 62 67 68 64 68 60 56 55 61 59 58 55 48 44 46 47 48 49 49 48 47 50 55 57 57 55 53 52 53 53 52 51 51 51 51 53 56 58 60 62 64 68 72
78 67 71 70 77 78 70 58 58 60 61 60 58 54 48 45 51 50 49 49 51 53 52 51 51 52 52 53 54 55 56 56 56 55 55 55 55 57 61 63 63 66 72 74
75 77 72 66 69 82 75 64 69 69 70 51 55 54 55 57 60 51 52 52 55 56 56 56 55 54 55 55 56 57 58 57 57 56 56 57 58 59 60 61 62 65 69 70
71 79 80 76 71 71 78 77 74 77 75 73 66 57 53 57 62 61 59 59 57 58 60 61 60 60 58 58 58 57 56 56 57 58 59 60 61 62 63 61 59 61 64 62
46 56 64 67 68 72 68 66 73 76 71 66 70 74 68 59 58 61 61 59 62 61 57 56 57 60 60 60 58 56 58 60 60 60 60 60 62 64 62 60 61 61 62 70
59 39 38 38 57 66 64 59 62 60 61 65 70 69 65 67 69 65 66 67 64 65 66 65 64 62 63 64 63 62 59 59 60 60 61 62 61 61 62 64 66 68 69 72
66 67 67 58 43 41 33 36 43 44 39 51 63 63 66 69 72 74 74 69 64 60 60 59 54 55 56 60 62 64 62 62 62 64 59 58 57 59 61 66 69 71 70 67
64 64 65 70 72 57 47 49 50 50 47 48 45 43 39 37 39 42 42 43 43 45 47 47 48 52 57 59 60 59 59 58 57 60 61 62 62 62 63 64 62 61 60 63
76 70 71 75 71 72 72 64 58 61 62 65 60 57 53 51 51 50 47 44 46 49 52 53 55 57 55 56 59 60 61 61 60 61 62 60 58 59 61 63 64 66 69 72
Wind_Direction
235 236 237 239 243 248 252 256 260 265 269 269 271 271 277 282 288 291 298 299 299 290 278 281 277 271 267 263 261 262 263 265 268 271 275 276 275 273 272 269 268 266 268 270
237 239 241 245 249 251 255 259 263 265 267 270 271 270 270 280 285 291 297 301 295 286 282 274 274 271 266 263 261 262 263 264 267 270 273 277 277 275 273 271 267 264 266 268
241 242 243 247 252 256 256 259 262 265 268 273 276 268 269 272 280 288 299 299 295 288 283 278 271 269 269 267 263 261 261 263 267 270 271 272 276 277 274 270 268 268 268 270
243 246 248 250 253 256 257 261 264 268 271 273 272 273 267 274 275 286 295 292 290 286 283 279 272 266 264 261 260 262 265 267 269 271 271 272 272 274 273 271 271 271 271 272
244 246 248 249 252 255 259 262 266 269 272 275 270 276 274 272 273 285 293 291 281 276 280 275 269 267 265 264 264 264 267 269 270 270 269 268 270 271 272 270 268 269 270 271
246 248 249 251 254 258 261 264 266 269 273 272 275 278 273 282 284 291 301 292 275 264 271 273 269 265 263 263 264 267 270 272 272 270 270 268 268 269 270 269 267 267 269 271
248 249 252 253 255 257 260 263 267 267 266 270 276 278 279 283 291 298 303 285 277 261 265 268 268 268 268 267 268 271 273 275 275 274 272 271 270 268 267 267 267 269 270 271
252 251 253 256 257 259 259 260 262 267 270 271 273 277 284 287 289 296 297 289 289 274 262 264 266 266 267 268 270 272 274 274 272 271 271 271 270 268 267 266 267 268 269 270
252 251 252 252 253 253 258 259 261 264 267 269 276 280 282 285 287 288 293 289 281 275 268 264 265 266 267 268 268 269 272 272 275 273 271 271 271 270 266 266 267 268 270 271
248 251 249 251 251 253 256 258 259 262 267 271 274 278 282 285 287 285 288 289 272 264 268 267 267 267 267 268 268 270 271 271 271 273 270 269 270 268 267 267 268 268 270 271
251 251 252 254 257 258 258 259 263 265 265 269 274 275 281 283 282 281 282 278 269 262 264 265 266 267 269 271 272 273 275 275 275 275 273 269 268 268 269 269 269 269 270 270
255 255 255 256 256 256 258 260 260 259 262 267 273 273 279 275 270 273 276 278 274 265 262 260 262 265 266 268 271 275 277 276 275 274 274 272 268 268 268 268 268 269 269 269
249 247 249 252 256 258 260 261 259 258 258 263 265 271 271 268 272 277 280 280 279 272 264 266 265 266 264 266 269 272 274 274 273 272 273 274 273 272 269 267 268 268 268 269
254 256 251 247 253 252 254 257 258 255 253 265 258 270 262 267 269 273 274 274 274 275 277 266 267 266 265 265 269 271 272 272 274 275 272 271 271 270 270 269 268 268 269 272
249 253 258 255 256 256 257 255 256 255 257 255 261 259 255 262 270 274 277 279 280 277 274 267 266 269 273 272 269 269 271 273 273 273 274 274 272 270 270 272 272 273 275 276
255 254 255 259 259 259 258 255 255 256 255 256 263 264 265 272 267 265 270 274 274 274 274 277 278 274 272 273 276 274 273 274 275 275 272 272 274 275 275 275 276 277 277 278
252 247 247 249 256 248 248 254 257 258 257 259 256 262 260 259 267 270 267 271 276 278 278 276 274 275 276 277 278 280 278 276 277 277 276 272 271 273 275 276 278 279 280 280
255 251 248 247 243 248 248 244 251 253 251 252 260 267 265 263 261 262 270 274 274 277 276 276 278 279 279 280 281 279 279 279 280 279 278 278 274 273 274 276 278 279 279 279
251 255 254 251 248 249 247 249 257 258 254 255 262 264 266 268 265 262 273 274 275 274 275 277 279 280 279 277 277 277 277 278 281 281 278 276 274 273 273 276 278 278 278 279
250 251 253 250 249 255 257 256 252 255 257 256 262 265 262 259 265 268 267 270 272 274 275 277 279 279 279 279 278 278 278 279 279 278 275 273 273 274 276 276 277 278 279 282
245 249 252 253 255 254 259 257 254 256 261 262 260 259 262 258 259 259 260 265 268 269 272 274 276 277 278 278 277 277 278 277 277 277 276 275 274 274 275 276 278 280 282 282
255 248 251 253 251 256 260 254 258 263 258 256 257 258 259 256 254 254 253 258 263 266 270 273 276 278 279 279 279 281 282 280 278 277 277 275 276 275 273 275 277 279 277 276
234 241 236 241 249 250 249 250 255 255 255 258 260 260 258 255 253 255 256 264 268 268 266 268 272 275 275 275 275 276 276 278 277 277 276 275 275 274 272 271 269 271 272 272
241 239 242 238 227 225 231 232 237 241 252 251 255 258 260 258 257 259 262 265 263 261 263 265 265 271 274 274 275 273 273 274 276 277 276 274 275 273 272 272 272 272 273 275
236 239 242 245 246 245 249 256 258 255 258 265 255 263 263 259 262 261 261 262 264 270 271 274 276 273 275 277 277 276 277 277 275 276 276 277 279 277 274 272 274 276 274 271
240 243 247 250 255 264 267 273 277 275 270 269 274 274 275 269 276 282 278 276 271 271 271 272 274 273 273 273 276 277 278 279 280 278 278 276 274 274 273 273 274 273 273 274
Height
5816 5819 5824 5825 5825 5829 5831 5833 5835 5835 5834 5834 5836 5839 5838 5836 5840 5840 5839 5838 5838 5838 5835 5835 5836 5836 5835 5836 5836 5836 5837 5837 5837 5837 5837 5836 5836 5836 5836 5836 5836 5835 5835 5834
5810 5813 5817 5819 5821 5823 5825 5826 5827 5828 5827 5826 5829 5831 5835 5833 5833 5834 5834 5832 5830 5829 5828 5827 5827 5828 5828 5828 5829 5829 5829 5830 5830 5830 5830 5830 5830 5829 5829 5828 5828 5828 5826 5826
5802 5806 5810 5812 5815 5817 5818 5819 5819 5819 5820 5820 5820 5819 5827 5830 5828 5828 5828 5825 5823 5822 5820 5819 5818 5819 5819 5821 5820 5821 5821 5822 5823 5823 5823 5822 5822 5822 5821 5820 5819 5819 5819 5818
5794 5798 5803 5806 5807 5807 5810 5810 5811 5812 5812 5814 5812 5801 5818 5823 5823 5823 5822 5818 5816 5814 5813 5811 5810 5810 5811 5810 5810 5811 5813 5814 5814 5815 5815 5815 5814 5814 5813 5812 5812 5811 5810 5808
5789 5790 5792 5796 5799 5798 5801 5802 5803 5802 5803 5804 5800 5799 5801 5813 5816 5818 5816 5811 5807 5804 5803 5803 5801 5801 5802 5802 5803 5803 5805 5806 5806 5805 5805 5805 5805 5804 5803 5803 5802 5801 5800 5799
5777 5780 5784 5787 5789 5790 5792 5793 5793 5793 5794 5794 5790 5794 5792 5800 5804 5807 5806 5799 5795 5794 5793 5793 5792 5791 5792 5793 5794 5795 5796 5796 5796 5795 5795 5795 5794 5794 5794 5793 5792 5791 5790 5789
5767 5771 5774 5777 5779 5780 5783 5784 5783 5783 5783 5784 5782 5780 5788 5792 5789 5795 5793 5789 5785 5785 5784 5784 5783 5783 5784 5785 5785 5785 5786 5786 5786 5785 5785 5784 5784 5783 5783 5783 5782 5781 5780 5778
5754 5759 5763 5768 5770 5770 5771 5774 5774 5771 5772 5776 5773 5771 5775 5783 5782 5779 5783 5782 5778 5776 5775 5775 5776 5776 5776 5775 5775 5775 5776 5776 5775 5775 5774 5773 5773 5773 5772 5771 5771 5770 5768 5767
5739 5744 5750 5755 5756 5757 5760 5761 5766 5761 5762 5759 5764 5767 5765 5771 5774 5772 5768 5775 5772 5769 5768 5767 5767 5766 5765 5765 5765 5765 5765 5765 5765 5764 5763 5763 5762 5762 5761 5760 5759 5758 5757 5755
5726 5729 5737 5740 5742 5745 5746 5751 5750 5750 5751 5751 5756 5754 5756 5759 5759 5758 5762 5761 5762 5762 5760 5758 5756 5756 5756 5755 5755 5755 5754 5754 5753 5753 5753 5753 5752 5751 5750 5749 5748 5747 5745 5744
5714 5715 5723 5725 5730 5734 5733 5736 5738 5738 5738 5739 5743 5746 5752 5749 5746 5745 5750 5752 5751 5751 5750 5749 5749 5747 5745 5745 5744 5743 5743 5743 5742 5742 5742 5740 5740 5739 5738 5737 5737 5735 5734 5733
5704 5701 5706 5712 5713 5716 5718 5722 5721 5719 5724 5727 5732 5735 5741 5737 5732 5736 5738 5740 5741 5741 5740 5740 5741 5738 5737 5735 5734 5734 5733 5732 5731 5730 5729 5728 5727 5727 5727 5726 5725 5723 5722 5720
5691 5685 5692 5695 5699 5701 5702 5707 5709 5709 5710 5716 5715 5725 5731 5728 5728 5727 5727 5725 5724 5727 5729 5730 5728 5726 5726 5726 5726 5725 5724 5721 5719 5718 5717 5716 5715 5715 5714 5713 5711 5710 5708 5706
5672 5669 5676 5682 5689 5689 5691 5695 5696 5696 5695 5704 5700 5712 5717 5715 5717 5717 5714 5712 5711 5713 5719 5717 5714 5712 5713 5717 5715 5713 5711 5710 5708 5706 5704 5703 5703 5701 5700 5698 5697 5695 5694 5692
5655 5654 5661 5670 5674 5675 5676 5679 5680 5679 5690 5679 5697 5691 5706 5707 5707 5703 5699 5697 5695 5697 5698 5700 5700 5700 5702 5702 5701 5700 5699 5698 5697 5695 5694 5693 5691 5689 5687 5686 5684 5682 5681 5679
5640 5642 5646 5650 5658 5659 5658 5663 5667 5671 5675 5666 5681 5679 5700 5697 5692 5689 5688 5684 5684 5682 5681 5684 5688 5687 5686 5685 5686 5687 5685 5684 5683 5682 5681 5679 5678 5677 5675 5673 5671 5669 5667 5664
5621 5627 5632 5632 5646 5639 5635 5655 5659 5658 5661 5661 5658 5674 5681 5678 5679 5678 5671 5671 5674 5671 5671 5671 5670 5669 5669 5671 5670 5671 5670 5670 5669 5668 5667 5666 5664 5664 5662 5659 5657 5655 5652 5648
5604 5610 5613 5615 5624 5608 5632 5642 5646 5641 5646 5647 5648 5662 5667 5663 5663 5660 5661 5661 5659 5659 5658 5656 5656 5658 5658 5657 5657 5656 5656 5656 5656 5656 5654 5653 5651 5649 5647 5645 5642 5640 5637 5632
5591 5595 5593 5594 5599 5602 5616 5636 5635 5629 5636 5638 5640 5650 5653 5649 5641 5650 5650 5647 5648 5645 5645 5646 5645 5645 5645 5643 5643 5643 5643 5642 5642 5641 5639 5637 5635 5633 5631 5629 5626 5623 5620 5616
5576 5577 5577 5584 5576 5576 5606 5631 5621 5612 5603 5641 5628 5636 5637 5629 5627 5642 5634 5631 5632 5632 5633 5633 5633 5633 5632 5631 5630 5629 5628 5628 5626 5624 5622 5620 5618 5616 5615 5613 5610 5607 5604 5600
5558 5559 5556 5564 5564 5564 5589 5600 5599 5584 5606 5617 5616 5618 5617 5613 5613 5619 5623 5619 5616 5618 5619 5618 5618 5617 5617 5617 5616 5615 5614 5612 5610 5608 5607 5605 5603 5601 5599 5597 5595 5592 5588 5584
5541 5542 5544 5549 5551 5556 5576 5575 5575 5579 5586 5592 5594 5596 5601 5600 5597 5599 5602 5603 5602 5603 5604 5604 5603 5602 5601 5600 5600 5598 5597 5596 5594 5593 5591 5588 5586 5585 5583 5581 5579 5575 5572 5568
5526 5528 5531 5532 5535 5548 5554 5556 5556 5558 5560 5568 5572 5575 5576 5579 5581 5581 5583 5587 5588 5588 5588 5588 5587 5587 5585 5584 5583 5581 5579 5578 5577 5575 5573 5571 5570 5568 5565 5563 5560 5556 5553 5548
5504 5514 5513 5515 5522 5527 5528 5532 5539 5542 5545 5548 5551 5554 5557 5558 5561 5562 5564 5567 5569 5570 5569 5569 5569 5569 5568 5568 5566 5563 5561 5560 5558 5557 5555 5553 5551 5550 5548 5544 5540 5537 5533 5529
5493 5497 5501 5500 5510 5515 5519 5521 5523 5525 5530 5533 5536 5539 5542 5544 5546 5546 5548 5550 5551 5552 5552 5552 5551 5550 5551 5551 5549 5548 5546 5543 5541 5540 5539 5537 5535 5532 5530 5526 5522 5519 5516 5514
5478 5485 5486 5490 5498 5499 5504 5507 5508 5511 5515 5518 5521 5524 5526 5529 5530 5532 5532 5534 5535 5535 5535 5534 5533 5532 5532 5532 5533 5532 5530 5528 5526 5524 5522 5520 5517 5515 5513 5510 5506 5503 5499 5496